Airfield :
LOGIN :

Register | Disclaimer

   EN    FR    IT 

 










Legend :    VFR   Marginal VFR   IFR   Intensive IFR   Very Intensive IFR
Visi :
Ceiling :
>= 8 km
>= 3000ft
5 to 8 km
1000 to 3000 ft
1500m to 5 km
500 to 1000 ft
800 to 1500m
200 to 500 ft
< 800m
< 200 ft
Symbols :   Thunderstorms  Fog  Heavy snow  Heavy precipitations  Wind > 20 kt
SIGMETs :     Misc.  Thunderstorms  Icing  Turbulence  Mountain Waves  Volcanic Ashes







- Airport Elevation : 598 ft
- IATA code : BQH
- Download approach charts


EGKB - Biggin Hill

CURRENT METAR :
  • 181650Z 36005KT 5000 BR FEW005 SCT038 16/16 Q1012 RERA

EXPIRED METARs :
  • 181620Z 01004KT 340V050 8000 FEW038 16/16 Q1012 RERA
  • 181550Z VRB02KT 5000 RA FEW020 SCT038 16/15 Q1013
  • 181450Z 06004KT 030V100 9999 -RA FEW040 SCT049 16/15 Q1013
  • 181420Z 08006KT 9999 -SHRA FEW040 16/15 Q1013

TAF TAF EGKB
Valid from the 18 at 15:00 until the 18 at 23:00 UTC


181350Z 1815/1823 05005KT 9999 FEW040
PROB40
TEMPO 1815/1823 4000 RA SHRA
No reported NOTAMs for that airfield.



MET'MAP, your aeronautical weather chart ! - Copyright ORBIFLY December 2007 - Disclaimer

ORBIFLY MET'MAP TEAM :

Programming & Development : Alexandra Zaïnal
Concept & Development : Baudouin d'Aumeries
Co-Development & Prog : Marc-Olivier Méhu
Technical & hardware support : Manuel Goepfert

Contact : metmap@orbifly.com




SOURCES & CREDITS :

   NOAA